When you browse on this site, cookies collect data to enhance your experience and personalize the content and advertising you see.
Visit our Privacy Policy to learn more. By continuing to use the site, you agree to this use of cookies and data.
  • în România
  • Lista ţărilor
  • Pe 7 zile
  • Temperatura apei
  • Hartă satelitară
  • Meteo pe hartă
  • Widget-uri
  • user-avatar
    Intrare

    Meteo pe oră la Ibramowice

    Astăzi, 27 Mai, Luni

    Timp Temperatura Precipitaţii Vânt Presiune Umiditate
    00:00 +14°C° 0 mm 2 m/s 737 mmHg 89%
    01:00 +14°C° 0 mm 2 m/s 737 mmHg 91%
    02:00 +14°C° 0 mm 2 m/s 736 mmHg 91%
    03:00 +13°C° 0 mm 2 m/s 736 mmHg 91%
    04:00 +13°C° 0 mm 2 m/s 736 mmHg 91%
    05:00 +15°C° 0 mm 2 m/s 736 mmHg 88%
    06:00 +17°C° 0 mm 2 m/s 736 mmHg 84%
    07:00 +18°C° 0 mm 3 m/s 736 mmHg 80%
    08:00 +20°C° 0 mm 3 m/s 736 mmHg 73%
    09:00 +22°C° 0 mm 3 m/s 736 mmHg 66%
    10:00 +24°C° 0 mm 3 m/s 736 mmHg 59%
    11:00 +25°C° 0.1 mm 3 m/s 736 mmHg 58%
    12:00 +25°C° 0.1 mm 2 m/s 736 mmHg 56%
    13:00 +26°C° 0.1 mm 2 m/s 735 mmHg 55%
    14:00 +25°C° 0.3 mm 2 m/s 735 mmHg 58%
    15:00 +25°C° 0.3 mm 2 m/s 735 mmHg 60%
    16:00 +25°C° 0.3 mm 2 m/s 734 mmHg 63%
    17:00 +24°C° 0.2 mm 1 m/s 734 mmHg 67%
    18:00 +22°C° 0.2 mm 1 m/s 734 mmHg 72%
    19:00 +21°C° 0.2 mm 1 m/s 734 mmHg 76%
    20:00 +20°C° 0 mm 1 m/s 733 mmHg 78%
    21:00 +19°C° 0 mm 1 m/s 733 mmHg 81%
    22:00 +17°C° 0 mm 2 m/s 733 mmHg 84%
    23:00 +17°C° 0.1 mm 2 m/s 733 mmHg 86%

    Mâine, 28 Mai, Marţi

    Timp Temperatura Precipitaţii Vânt Presiune Umiditate
    00:00 +17°C° 0.1 mm 2 m/s 732 mmHg 89%
    01:00 +17°C° 0.1 mm 2 m/s 732 mmHg 91%
    02:00 +16°C° 0.1 mm 2 m/s 732 mmHg 92%
    03:00 +16°C° 0.1 mm 2 m/s 732 mmHg 93%
    04:00 +15°C° 0.1 mm 2 m/s 731 mmHg 93%
    05:00 +16°C° 0 mm 2 m/s 731 mmHg 90%
    06:00 +18°C° 0 mm 2 m/s 731 mmHg 86%
    07:00 +19°C° 0 mm 2 m/s 731 mmHg 82%
    08:00 +20°C° 0.2 mm 3 m/s 731 mmHg 77%
    09:00 +22°C° 0.2 mm 4 m/s 731 mmHg 72%
    10:00 +23°C° 0.2 mm 4 m/s 731 mmHg 67%
    11:00 +23°C° 0.9 mm 4 m/s 731 mmHg 69%
    12:00 +22°C° 0.9 mm 4 m/s 730 mmHg 72%
    13:00 +22°C° 0.9 mm 4 m/s 730 mmHg 74%
    14:00 +22°C° 0.3 mm 3 m/s 730 mmHg 73%
    15:00 +23°C° 0.3 mm 2 m/s 730 mmHg 72%
    16:00 +23°C° 0.3 mm 1 m/s 729 mmHg 70%
    17:00 +22°C° 2.1 mm 1 m/s 729 mmHg 75%
    18:00 +21°C° 2.1 mm 1 m/s 729 mmHg 79%
    19:00 +19°C° 2.1 mm 1 m/s 729 mmHg 83%
    20:00 +18°C° 0.1 mm 1 m/s 730 mmHg 85%
    21:00 +16°C° 0.1 mm 2 m/s 730 mmHg 86%
    22:00 +15°C° 0.1 mm 2 m/s 731 mmHg 88%
    23:00 +15°C° 0.1 mm 2 m/s 731 mmHg 91%

    Poimâine, 29 Mai, Miercuri

    Timp Temperatura Precipitaţii Vânt Presiune Umiditate
    00:00 +13°C° 0.1 mm 3 m/s 731 mmHg 94%
    01:00 +13°C° 0.1 mm 3 m/s 732 mmHg 97%
    02:00 +13°C° 0.2 mm 3 m/s 732 mmHg 96%
    03:00 +13°C° 0.2 mm 4 m/s 733 mmHg 95%
    04:00 +13°C° 0.2 mm 5 m/s 733 mmHg 95%
    05:00 +12°C° 0.3 mm 5 m/s 734 mmHg 94%
    06:00 +10°C° 0.3 mm 5 m/s 735 mmHg 94%
    07:00 +9°C° 0.3 mm 5 m/s 735 mmHg 93%
    08:00 +9°C° 0.4 mm 5 m/s 736 mmHg 93%
    09:00 +10°C° 0.4 mm 4 m/s 736 mmHg 92%
    10:00 +10°C° 0.4 mm 4 m/s 737 mmHg 92%
    11:00 +10°C° 0.2 mm 3 m/s 737 mmHg 91%
    12:00 +11°C° 0.2 mm 3 m/s 738 mmHg 89%
    13:00 +13°C° 0.2 mm 2 m/s 738 mmHg 87%
    14:00 +14°C° 0 mm 2 m/s 738 mmHg 84%
    15:00 +15°C° 0 mm 2 m/s 738 mmHg 82%
    16:00 +16°C° 0 mm 2 m/s 738 mmHg 79%
    17:00 +15°C° 0.1 mm 2 m/s 739 mmHg 81%
    18:00 +15°C° 0.1 mm 1 m/s 739 mmHg 83%
    19:00 +14°C° 0.1 mm 1 m/s 739 mmHg 85%
    20:00 +14°C° 0 mm 1 m/s 739 mmHg 86%
    21:00 +13°C° 0 mm 2 m/s 739 mmHg 87%
    22:00 +12°C° 0 mm 2 m/s 740 mmHg 88%
    23:00 +12°C° 0.1 mm 2 m/s 740 mmHg 89%

    30 Mai, Joi

    Timp Temperatura Precipitaţii Vânt Presiune Umiditate
    00:00 +12°C° 0.1 mm 2 m/s 740 mmHg 90%
    01:00 +10°C° 0.1 mm 3 m/s 740 mmHg 90%
    02:00 +10°C° 0.6 mm 2 m/s 740 mmHg 92%
    03:00 +10°C° 0.6 mm 2 m/s 740 mmHg 93%
    04:00 +10°C° 0.6 mm 2 m/s 740 mmHg 94%
    05:00 +10°C° 0.6 mm 2 m/s 740 mmHg 93%
    06:00 +10°C° 0.6 mm 2 m/s 741 mmHg 93%
    07:00 +10°C° 0.6 mm 3 m/s 741 mmHg 92%
    08:00 +10°C° 0.1 mm 3 m/s 741 mmHg 90%
    09:00 +11°C° 0.1 mm 3 m/s 741 mmHg 88%
    10:00 +11°C° 0.1 mm 3 m/s 741 mmHg 85%
    11:00 +13°C° 0 mm 2 m/s 741 mmHg 80%
    12:00 +14°C° 0 mm 2 m/s 741 mmHg 74%
    13:00 +15°C° 0 mm 2 m/s 741 mmHg 68%
    14:00 +16°C° 0 mm 2 m/s 741 mmHg 66%
    15:00 +18°C° 0 mm 1 m/s 741 mmHg 64%
    16:00 +18°C° 0 mm 1 m/s 741 mmHg 62%
    17:00 +16°C° 0 mm 1 m/s 741 mmHg 66%
    18:00 +15°C° 0 mm 1 m/s 741 mmHg 69%
    19:00 +14°C° 0 mm 1 m/s 741 mmHg 73%
    20:00 +14°C° 0 mm 1 m/s 741 mmHg 73%
    21:00 +13°C° 0 mm 1 m/s 741 mmHg 72%
    22:00 +12°C° 0 mm 1 m/s 741 mmHg 72%
    23:00 +11°C° 0 mm 1 m/s 741 mmHg 72%

    31 Mai, Vineri

    Timp Temperatura Precipitaţii Vânt Presiune Umiditate
    00:00 +11°C° 0 mm 1 m/s 741 mmHg 72%
    01:00 +10°C° 0 mm 1 m/s 741 mmHg 73%
    02:00 +10°C° 0 mm 1 m/s 741 mmHg 74%
    03:00 +10°C° 0 mm 1 m/s 741 mmHg 75%
    04:00 +10°C° 0 mm 1 m/s 740 mmHg 76%
    05:00 +11°C° 0 mm 1 m/s 740 mmHg 73%
    06:00 +13°C° 0 mm 1 m/s 740 mmHg 70%
    07:00 +15°C° 0 mm 1 m/s 740 mmHg 68%
    08:00 +16°C° 0 mm 1 m/s 740 mmHg 65%
    09:00 +19°C° 0 mm 1 m/s 740 mmHg 62%
    10:00 +20°C° 0 mm 1 m/s 739 mmHg 59%
    11:00 +21°C° 0 mm 1 m/s 739 mmHg 58%
    12:00 +22°C° 0 mm 1 m/s 739 mmHg 56%
    13:00 +22°C° 0 mm 1 m/s 739 mmHg 55%
    14:00 +22°C° 0 mm 1 m/s 738 mmHg 58%
    15:00 +22°C° 0 mm 1 m/s 738 mmHg 62%
    16:00 +21°C° 0 mm 1 m/s 738 mmHg 65%
    17:00 +19°C° 0.2 mm 2 m/s 738 mmHg 73%
    18:00 +17°C° 0.2 mm 2 m/s 738 mmHg 81%
    19:00 +16°C° 0.2 mm 2 m/s 738 mmHg 89%
    20:00 +16°C° 0 mm 2 m/s 738 mmHg 89%
    21:00 +15°C° 0 mm 2 m/s 738 mmHg 89%
    22:00 +15°C° 0 mm 2 m/s 738 mmHg 88%
    23:00 +15°C° 0.1 mm 2 m/s 738 mmHg 90%

    1 Iunie, Sâmbătă

    Timp Temperatura Precipitaţii Vânt Presiune Umiditate
    00:00 +14°C° 0.1 mm 3 m/s 738 mmHg 92%
    01:00 +14°C° 0.1 mm 3 m/s 738 mmHg 94%
    02:00 +13°C° 0.5 mm 4 m/s 739 mmHg 94%
    03:00 +13°C° 0.5 mm 5 m/s 739 mmHg 94%
    04:00 +13°C° 0.5 mm 6 m/s 739 mmHg 94%
    05:00 +11°C° 0.7 mm 7 m/s 739 mmHg 93%
    06:00 +11°C° 0.7 mm 7 m/s 740 mmHg 93%
    07:00 +10°C° 0.7 mm 7 m/s 740 mmHg 93%
    08:00 +10°C° 0.6 mm 7 m/s 741 mmHg 93%
    09:00 +11°C° 0.6 mm 7 m/s 741 mmHg 92%
    10:00 +11°C° 0.6 mm 7 m/s 741 mmHg 91%
    11:00 +11°C° 0.3 mm 7 m/s 742 mmHg 91%
    12:00 +11°C° 0.3 mm 7 m/s 742 mmHg 90%
    13:00 +11°C° 0.3 mm 7 m/s 742 mmHg 89%
    14:00 +11°C° 0.4 mm 6 m/s 742 mmHg 89%
    15:00 +11°C° 0.4 mm 6 m/s 742 mmHg 89%
    16:00 +12°C° 0.4 mm 5 m/s 742 mmHg 89%
    17:00 +12°C° 0.4 mm 5 m/s 742 mmHg 89%
    18:00 +12°C° 0.4 mm 5 m/s 742 mmHg 90%
    19:00 +12°C° 0.4 mm 4 m/s 743 mmHg 90%
    20:00 +11°C° 0.3 mm 4 m/s 743 mmHg 90%
    21:00 +11°C° 0.3 mm 4 m/s 743 mmHg 90%
    22:00 +10°C° 0.3 mm 4 m/s 743 mmHg 90%
    23:00 +10°C° 0.3 mm 4 m/s 743 mmHg 90%
    Arată mai mult